,,,PA_Meas_PMT16A,,PR_Meas_QMR101_102,,RH_Meas_QMH101,,SR_Meas_QMS101,,TA_Meas_QMH101,,GenWind,,GenWind,
date,time,status,PA,status,PR,status,RH,status,SR,status,TA,status,DirAvg,status,SpdAvg,
2012-06-13, 00:00:04,VALID,1002.03,VALID,0,VALID,90.2508,VALID,0,VALID,23.1549,VALID,10,VALID,0.711328,
2012-06-13, 00:01:04,VALID,1002.04,VALID,0,VALID,90.3881,VALID,0,VALID,23.1549,VALID,10,VALID,0.510156,
2012-06-13, 00:02:04,VALID,1002.03,VALID,0,VALID,90.6323,VALID,0,VALID,23.1159,VALID,10,VALID,0.423438,
2012-06-13, 00:03:04,VALID,1002.02,VALID,0,VALID,90.9832,VALID,0,VALID,23.0556,VALID,10,VALID,0.494531,
2012-06-13, 00:04:04,VALID,1002.02,VALID,0,VALID,91.1053,VALID,0,VALID,23.0183,VALID,23,VALID,0.667578,
2012-06-13, 00:05:04,VALID,1002.02,VALID,0,VALID,91.2426,VALID,0,VALID,22.9988,VALID,27,VALID,0.770703,
2012-06-13, 00:06:04,VALID,1001.99,VALID,0,VALID,91.4257,VALID,0,VALID,22.9581,VALID,28,VALID,0.485938,
2012-06-13, 00:07:04,VALID,1001.98,VALID,0,VALID,91.6394,VALID,0,VALID,22.9598,VALID,28,VALID,0.123828,
2012-06-13, 00:08:04,VALID,1001.97,VALID,0,VALID,91.792,VALID,0,VALID,22.9208,VALID,28,VALID,0.529297,
2012-06-13, 00:09:04,VALID,1001.93,VALID,0,VALID,91.6394,VALID,0,VALID,22.9013,VALID,49,VALID,0.654688,
2012-06-13, 00:10:04,VALID,1001.95,VALID,0,VALID,91.4486,VALID,0,VALID,22.9013,VALID,51,VALID,0.8125,
2012-06-13, 00:11:04,VALID,1001.95,VALID,0,VALID,91.0824,VALID,0,VALID,22.9208,VALID,53,VALID,0.969141,
2012-06-13, 00:12:04,VALID,1001.93,VALID,0,VALID,90.8154,VALID,0,VALID,22.9403,VALID,56,VALID,0.969531,
2012-06-13, 00:13:04,VALID,1001.91,VALID,0,VALID,90.4339,VALID,0,VALID,22.9793,VALID,56,VALID,0.933203,
2012-06-13, 00:14:04,VALID,1001.9,VALID,0,VALID,90.2431,VALID,0,VALID,23.0183,VALID,56,VALID,0.906641,
2012-06-13, 00:15:04,VALID,1001.9,VALID,0,VALID,90.3423,VALID,0,VALID,23.0591,VALID,46,VALID,0.6375,
2012-06-13, 00:16:04,VALID,1001.91,VALID,0,VALID,90.8001,VALID,0,VALID,22.9988,VALID,27,VALID,0.638672,
2012-06-13, 00:17:04,VALID,1001.91,VALID,0,VALID,91.1968,VALID,0,VALID,22.9598,VALID,27,VALID,0.882422,
2012-06-13, 00:18:04,VALID,1001.86,VALID,0,VALID,91.2655,VALID,0,VALID,22.9208,VALID,27,VALID,0.914844,
2012-06-13, 00:19:04,VALID,1001.84,VALID,0,VALID,91.1053,VALID,0,VALID,22.9013,VALID,27,VALID,0.951563,
2012-06-13, 00:20:04,VALID,1001.86,VALID,0,VALID,91.2426,VALID,0,VALID,22.8623,VALID,21,VALID,0.891016,
2012-06-13, 00:21:04,VALID,1001.84,VALID,0,VALID,91.4944,VALID,0,VALID,22.8037,VALID,13,VALID,0.548828,
2012-06-13, 00:22:04,VALID,1001.84,VALID,0,VALID,91.8683,VALID,0,VALID,22.7647,VALID,13,VALID,0.377344,
2012-06-13, 00:23:04,VALID,1001.81,VALID,0,VALID,92.265,VALID,0,VALID,22.7647,VALID,13,VALID,0.100781,
2012-06-13, 00:24:04,VALID,1001.76,VALID,0,VALID,92.4405,VALID,0,VALID,22.7452,VALID,13,VALID,0,
2012-06-13, 00:25:04,VALID,1001.79,VALID,0,VALID,92.4863,VALID,0,VALID,22.7257,VALID,13,VALID,0,
2012-06-13, 00:26:04,VALID,1001.74,VALID,0,VALID,92.3947,VALID,0,VALID,22.7062,VALID,13,VALID,0,
2012-06-13, 00:27:04,VALID,1001.75,VALID,0,VALID,92.3489,VALID,0,VALID,22.6672,VALID,13,VALID,0,
2012-06-13, 00:28:04,VALID,1001.73,VALID,0,VALID,92.4252,VALID,0,VALID,22.6672,VALID,13,VALID,0.341797,
2012-06-13, 00:29:04,VALID,1001.68,VALID,0,VALID,92.2955,VALID,0,VALID,22.6477,VALID,13,VALID,0.442578,
2012-06-13, 00:30:04,VALID,1001.67,VALID,0,VALID,91.7233,VALID,0,VALID,22.6264,VALID,13,VALID,0.755078,
2012-06-13, 00:31:04,VALID,1001.64,VALID,0,VALID,91.2197,VALID,0,VALID,22.6282,VALID,17,VALID,0.780859,
2012-06-13, 00:32:04,VALID,1001.65,VALID,0,VALID,91.1663,VALID,0,VALID,22.6069,VALID,17,VALID,0.639844,
2012-06-13, 00:33:04,VALID,1001.64,VALID,0,VALID,91.3952,VALID,0,VALID,22.6087,VALID,17,VALID,0.271484,
2012-06-13, 00:34:04,VALID,1001.61,VALID,0,VALID,91.5631,VALID,0,VALID,22.5892,VALID,17,VALID,0,
2012-06-13, 00:35:04,VALID,1001.61,VALID,0,VALID,91.708,VALID,0,VALID,22.5696,VALID,17,VALID,0.003125,
2012-06-13, 00:36:04,VALID,1001.62,VALID,0,VALID,91.8683,VALID,0,VALID,22.5519,VALID,17,VALID,0.0046875,
2012-06-13, 00:37:04,VALID,1001.6,VALID,0,VALID,92.0971,VALID,0,VALID,22.5306,VALID,17,VALID,0.184375,
2012-06-13, 00:38:04,VALID,1001.6,VALID,0,VALID,92.41,VALID,0,VALID,22.5501,VALID,17,VALID,0.365625,
2012-06-13, 00:39:04,VALID,1001.59,VALID,0,VALID,92.5473,VALID,0,VALID,22.5696,VALID,17,VALID,0.457031,
2012-06-13, 00:40:04,VALID,1001.57,VALID,0,VALID,92.4176,VALID,0,VALID,22.5892,VALID,17,VALID,0.516797,
2012-06-13, 00:41:04,VALID,1001.57,VALID,0,VALID,92.2574,VALID,0,VALID,22.5892,VALID,17,VALID,0.553125,
2012-06-13, 00:42:04,VALID,1001.53,VALID,0,VALID,92.7075,VALID,0,VALID,22.6477,VALID,17,VALID,0.600781,
2012-06-13, 00:43:04,VALID,1001.53,VALID,0,VALID,93.2263,VALID,0,VALID,22.7062,VALID,17,VALID,0.622266,
2012-06-13, 00:44:04,VALID,1001.52,VALID,0,VALID,93.4476,VALID,0,VALID,22.7257,VALID,17,VALID,0.559766,
2012-06-13, 00:45:04,VALID,1001.49,VALID,0,VALID,93.6765,VALID,0,VALID,22.7257,VALID,17,VALID,0.505469,
2012-06-13, 00:46:04,VALID,1001.49,VALID,0,VALID,93.9054,VALID,0,VALID,22.7257,VALID,17,VALID,0.336719,
2012-06-13, 00:47:04,VALID,1001.47,VALID,0,VALID,93.9817,VALID,0,VALID,22.7062,VALID,17,VALID,0.200781,
2012-06-13, 00:48:04,VALID,1001.45,VALID,0,VALID,93.9969,VALID,0,VALID,22.6867,VALID,17,VALID,0,
2012-06-13, 00:49:04,VALID,1001.43,VALID,0,VALID,93.9588,VALID,0,VALID,22.6477,VALID,17,VALID,0,
2012-06-13, 00:50:04,VALID,1001.42,VALID,0,VALID,94.0198,VALID,0,VALID,22.6282,VALID,17,VALID,0,
2012-06-13, 00:51:04,VALID,1001.43,VALID,0,VALID,94.0656,VALID,0,VALID,22.6282,VALID,17,VALID,0,
2012-06-13, 00:52:04,VALID,1001.38,VALID,0,VALID,94.1953,VALID,0,VALID,22.6282,VALID,17,VALID,0,
2012-06-13, 00:53:04,VALID,1001.41,VALID,0,VALID,94.3021,VALID,0,VALID,22.6282,VALID,17,VALID,0,
2012-06-13, 00:54:04,VALID,1001.34,VALID,0,VALID,94.3937,VALID,0,VALID,22.6069,VALID,17,VALID,0,
2012-06-13, 00:55:04,VALID,1001.39,VALID,0,VALID,94.5234,VALID,0,VALID,22.6282,VALID,17,VALID,0,
2012-06-13, 00:56:04,VALID,1001.37,VALID,0,VALID,94.5691,VALID,0,VALID,22.6282,VALID,17,VALID,0,
2012-06-13, 00:57:04,VALID,1001.36,VALID,0,VALID,94.6149,VALID,0,VALID,22.6282,VALID,17,VALID,0,
2012-06-13, 00:58:04,VALID,1001.32,VALID,0,VALID,94.6836,VALID,0,VALID,22.6282,VALID,17,VALID,0,
2012-06-13, 00:59:04,VALID,1001.32,VALID,0,VALID,94.737,VALID,0,VALID,22.6087,VALID,17,VALID,0,
2012-06-13, 01:00:04,VALID,1001.29,VALID,0,VALID,94.7675,VALID,0,VALID,22.6087,VALID,17,VALID,0,
2012-06-13, 01:01:04,VALID,1001.27,VALID,0,VALID,94.7904,VALID,0,VALID,22.6087,VALID,17,VALID,0.278516,
2012-06-13, 01:02:04,VALID,1001.28,VALID,0,VALID,94.798,VALID,0,VALID,22.6087,VALID,17,VALID,0.475,
2012-06-13, 01:03:04,VALID,1001.24,VALID,0,VALID,94.7599,VALID,0,VALID,22.6087,VALID,17,VALID,0.496484,
2012-06-13, 01:04:04,VALID,1001.27,VALID,0,VALID,94.6988,VALID,0,VALID,22.5679,VALID,17,VALID,0.516406,
2012-06-13, 01:05:04,VALID,1001.25,VALID,0,VALID,94.6378,VALID,0,VALID,22.5696,VALID,17,VALID,0.642578,
2012-06-13, 01:06:04,VALID,1001.23,VALID,0,VALID,94.5005,VALID,0,VALID,22.5696,VALID,17,VALID,0.719141,
2012-06-13, 01:07:04,VALID,1001.22,VALID,0,VALID,94.2334,VALID,0,VALID,22.5111,VALID,17,VALID,0.692187,
2012-06-13, 01:08:04,VALID,1001.18,VALID,0,VALID,93.974,VALID,0,VALID,22.4526,VALID,17,VALID,0.71875,
2012-06-13, 01:09:04,VALID,1001.17,VALID,0,VALID,93.9893,VALID,0,VALID,22.4136,VALID,17,VALID,0.659375,
2012-06-13, 01:10:04,VALID,1001.17,VALID,0,VALID,94.0045,VALID,0,VALID,22.3941,VALID,17,VALID,0.580469,
2012-06-13, 01:11:04,VALID,1001.16,VALID,0,VALID,94.1877,VALID,0,VALID,22.3746,VALID,17,VALID,0.448047,
2012-06-13, 01:12:04,VALID,1001.1,VALID,0,VALID,94.3326,VALID,0,VALID,22.3746,VALID,17,VALID,0.275391,
2012-06-13, 01:13:04,VALID,1001.1,VALID,0,VALID,94.4089,VALID,0,VALID,22.3746,VALID,17,VALID,0.189844,
2012-06-13, 01:14:04,VALID,1001.09,VALID,0,VALID,94.4852,VALID,0,VALID,22.3941,VALID,17,VALID,0.147266,
2012-06-13, 01:15:04,VALID,1001.06,VALID,0,VALID,94.5157,VALID,0,VALID,22.3729,VALID,17,VALID,0,
2012-06-13, 01:16:04,VALID,1001.02,VALID,0,VALID,94.5005,VALID,0,VALID,22.3941,VALID,17,VALID,0,
2012-06-13, 01:17:04,VALID,1001,VALID,0,VALID,94.5768,VALID,0,VALID,22.3941,VALID,17,VALID,0.221484,
2012-06-13, 01:18:04,VALID,1000.97,VALID,0,VALID,94.6378,VALID,0,VALID,22.3941,VALID,17,VALID,0.389453,
2012-06-13, 01:19:04,VALID,1000.96,VALID,0,VALID,94.6149,VALID,0,VALID,22.3746,VALID,17,VALID,0.558984,
2012-06-13, 01:20:04,VALID,1000.92,VALID,0,VALID,94.592,VALID,0,VALID,22.3746,VALID,17,VALID,0.762891,
2012-06-13, 01:21:04,VALID,1000.94,VALID,0,VALID,94.531,VALID,0,VALID,22.3551,VALID,17,VALID,0.873438,
2012-06-13, 01:22:04,VALID,1000.9,VALID,0,VALID,94.4928,VALID,0,VALID,22.3356,VALID,17,VALID,1.07734,
2012-06-13, 01:23:04,VALID,1000.9,VALID,0,VALID,94.4776,VALID,0,VALID,22.3161,VALID,29,VALID,1.18594,
2012-06-13, 01:24:04,VALID,1000.9,VALID,0,VALID,94.3555,VALID,0,VALID,22.2771,VALID,35,VALID,1.15117,
2012-06-13, 01:25:04,VALID,1000.92,VALID,0,VALID,94.4623,VALID,0,VALID,22.2771,VALID,35,VALID,1.20938,
2012-06-13, 01:26:04,VALID,1000.91,VALID,0,VALID,94.592,VALID,0,VALID,22.3161,VALID,35,VALID,1.09414,
2012-06-13, 01:27:04,VALID,1000.93,VALID,0,VALID,94.6836,VALID,0,VALID,22.3161,VALID,35,VALID,1.18203,
2012-06-13, 01:28:04,VALID,1000.9,VALID,0,VALID,94.6836,VALID,0,VALID,22.2949,VALID,34,VALID,0.698438,
2012-06-13, 01:29:04,VALID,1000.92,VALID,0,VALID,94.676,VALID,0,VALID,22.3161,VALID,18,VALID,0.610547,
2012-06-13, 01:30:04,VALID,1000.93,VALID,0,VALID,94.6378,VALID,0,VALID,22.2966,VALID,18,VALID,0.370313,
2012-06-13, 01:31:04,VALID,1000.92,VALID,0,VALID,94.6378,VALID,0,VALID,22.2771,VALID,18,VALID,0.406641,
2012-06-13, 01:32:04,VALID,1000.92,VALID,0,VALID,94.6836,VALID,0,VALID,22.2771,VALID,18,VALID,0.363281,
2012-06-13, 01:33:04,VALID,1000.93,VALID,0,VALID,94.7065,VALID,0,VALID,22.2576,VALID,18,VALID,0.278516,
2012-06-13, 01:34:04,VALID,1000.91,VALID,0,VALID,94.7599,VALID,0,VALID,22.2381,VALID,18,VALID,0.0445312,
2012-06-13, 01:35:04,VALID,1000.88,VALID,0,VALID,94.8133,VALID,0,VALID,22.2381,VALID,18,VALID,0.126953,
2012-06-13, 01:36:04,VALID,1000.91,VALID,0,VALID,94.798,VALID,0,VALID,22.2381,VALID,18,VALID,0,
2012-06-13, 01:37:04,VALID,1000.9,VALID,0,VALID,94.8285,VALID,0,VALID,22.2381,VALID,18,VALID,0,
2012-06-13, 01:38:04,VALID,1000.84,VALID,0,VALID,94.8438,VALID,0,VALID,22.2381,VALID,18,VALID,0.189844,
2012-06-13, 01:39:04,VALID,1000.84,VALID,0,VALID,94.9125,VALID,0,VALID,22.2381,VALID,18,VALID,0.291797,
2012-06-13, 01:40:04,VALID,1000.82,VALID,0,VALID,94.9583,VALID,0,VALID,22.2381,VALID,18,VALID,0.252734,
2012-06-13, 01:41:04,VALID,1000.82,VALID,0,VALID,94.9735,VALID,0,VALID,22.2381,VALID,44,VALID,0.773047,
2012-06-13, 01:42:04,VALID,1000.81,VALID,0,VALID,95.004,VALID,0,VALID,22.2576,VALID,55,VALID,0.6375,
2012-06-13, 01:43:04,VALID,1000.8,VALID,0,VALID,95.0193,VALID,0.104696,VALID,22.2381,VALID,56,VALID,0.586719,
2012-06-13, 01:44:04,VALID,1000.78,VALID,0,VALID,95.0117,VALID,0,VALID,22.2381,VALID,58,VALID,0.335938,
2012-06-13, 01:45:04,VALID,1000.8,VALID,0,VALID,94.9964,VALID,0,VALID,22.2186,VALID,58,VALID,0.280859,
2012-06-13, 01:46:04,VALID,1000.78,VALID,0,VALID,94.9888,VALID,0,VALID,22.2186,VALID,58,VALID,0.141797,
2012-06-13, 01:47:04,VALID,1000.8,VALID,0,VALID,94.9735,VALID,0,VALID,22.2186,VALID,58,VALID,0,
2012-06-13, 01:48:04,VALID,1000.77,VALID,0,VALID,94.9506,VALID,0,VALID,22.199,VALID,58,VALID,0,
2012-06-13, 01:49:04,VALID,1000.77,VALID,0,VALID,95.0117,VALID,0,VALID,22.199,VALID,58,VALID,0,
2012-06-13, 01:50:04,VALID,1000.74,VALID,0,VALID,95.0422,VALID,0,VALID,22.1974,VALID,58,VALID,0,
2012-06-13, 01:51:04,VALID,1000.72,VALID,0,VALID,95.0651,VALID,0,VALID,22.199,VALID,58,VALID,0,
2012-06-13, 01:52:04,VALID,1000.72,VALID,0,VALID,95.0574,VALID,0,VALID,22.1974,VALID,58,VALID,0,
2012-06-13, 01:53:04,VALID,1000.7,VALID,0,VALID,95.0956,VALID,0,VALID,22.2169,VALID,58,VALID,0,
2012-06-13, 01:54:04,VALID,1000.69,VALID,0,VALID,95.1032,VALID,0,VALID,22.1974,VALID,58,VALID,0,
2012-06-13, 01:55:04,VALID,1000.68,VALID,0,VALID,95.1795,VALID,0,VALID,22.2364,VALID,58,VALID,0.186328,
2012-06-13, 01:56:04,VALID,1000.69,VALID,0,VALID,95.1871,VALID,0,VALID,22.2381,VALID,58,VALID,0.468359,
2012-06-13, 01:57:04,VALID,1000.7,VALID,0,VALID,95.21,VALID,0,VALID,22.2364,VALID,58,VALID,0.567578,
2012-06-13, 01:58:04,VALID,1000.69,VALID,0,VALID,95.2177,VALID,0,VALID,22.2381,VALID,58,VALID,0.597656,
2012-06-13, 01:59:04,VALID,1000.69,VALID,0,VALID,95.21,VALID,0.104696,VALID,22.2169,VALID,25,VALID,0.737109,
2012-06-13, 02:00:04,VALID,1000.69,VALID,0,VALID,95.21,VALID,0,VALID,22.2364,VALID,25,VALID,0.512891,
2012-06-13, 02:01:04,VALID,1000.7,VALID,0,VALID,95.1795,VALID,0,VALID,22.2364,VALID,10,VALID,0.664063,
2012-06-13, 02:02:04,VALID,1000.73,VALID,0,VALID,95.1261,VALID,0,VALID,22.2576,VALID,10,VALID,0.769141,
2012-06-13, 02:03:04,VALID,1000.71,VALID,0,VALID,95.0956,VALID,0,VALID,22.2576,VALID,10,VALID,0.721875,
2012-06-13, 02:04:04,VALID,1000.73,VALID,0,VALID,95.0498,VALID,0,VALID,22.2397,VALID,10,VALID,0.788672,
2012-06-13, 02:05:04,VALID,1000.71,VALID,0,VALID,95.0269,VALID,0,VALID,22.199,VALID,10,VALID,0.755859,
2012-06-13, 02:06:04,VALID,1000.72,VALID,0,VALID,94.9659,VALID,0,VALID,22.2007,VALID,11,VALID,0.829687,
2012-06-13, 02:07:04,VALID,1000.7,VALID,0,VALID,94.9888,VALID,0,VALID,22.2007,VALID,11,VALID,0.686719,
2012-06-13, 02:08:04,VALID,1000.67,VALID,0,VALID,94.9583,VALID,0,VALID,22.1795,VALID,11,VALID,0.622266,
2012-06-13, 02:09:04,VALID,1000.68,VALID,0,VALID,94.9354,VALID,0,VALID,22.2007,VALID,11,VALID,0.716406,
2012-06-13, 02:10:04,VALID,1000.66,VALID,0,VALID,94.9201,VALID,0,VALID,22.2007,VALID,11,VALID,0.544922,
2012-06-13, 02:11:04,VALID,1000.64,VALID,0,VALID,94.8972,VALID,0,VALID,22.2007,VALID,11,VALID,0.2375,
2012-06-13, 02:12:04,VALID,1000.65,VALID,0,VALID,94.8972,VALID,0,VALID,22.2007,VALID,11,VALID,0,
2012-06-13, 02:13:04,VALID,1000.65,VALID,0,VALID,94.8972,VALID,0,VALID,22.2007,VALID,11,VALID,0,
2012-06-13, 02:14:04,VALID,1000.65,VALID,0,VALID,94.9354,VALID,0,VALID,22.2007,VALID,11,VALID,0,
2012-06-13, 02:15:04,VALID,1000.66,VALID,0,VALID,94.943,VALID,0,VALID,22.1812,VALID,11,VALID,0,
2012-06-13, 02:16:04,VALID,1000.68,VALID,0,VALID,94.9659,VALID,0,VALID,22.1829,VALID,11,VALID,0,
2012-06-13, 02:17:04,VALID,1000.68,VALID,0,VALID,94.9964,VALID,0,VALID,22.1812,VALID,11,VALID,0,
2012-06-13, 02:18:04,VALID,1000.67,VALID,0,VALID,95.0269,VALID,0,VALID,22.1812,VALID,11,VALID,0.308203,
2012-06-13, 02:19:04,VALID,1000.66,VALID,0,VALID,95.0727,VALID,0,VALID,22.199,VALID,11,VALID,0.357812,
2012-06-13, 02:20:04,VALID,1000.67,VALID,0,VALID,95.1032,VALID,0,VALID,22.2186,VALID,11,VALID,0.418359,
2012-06-13, 02:21:04,VALID,1000.69,VALID,0,VALID,95.0956,VALID,0,VALID,22.1974,VALID,11,VALID,0.713672,
2012-06-13, 02:22:04,VALID,1000.69,VALID,0,VALID,95.0651,VALID,0,VALID,22.199,VALID,11,VALID,0.832422,
2012-06-13, 02:23:04,VALID,1000.71,VALID,0,VALID,95.0117,VALID,0,VALID,22.2381,VALID,11,VALID,0.755859,
2012-06-13, 02:24:04,VALID,1000.69,VALID,0,VALID,94.8743,VALID,0.104696,VALID,22.2966,VALID,11,VALID,0.832812,
2012-06-13, 02:25:04,VALID,1000.69,VALID,0,VALID,94.7217,VALID,0,VALID,22.3746,VALID,27,VALID,0.901953,
2012-06-13, 02:26:04,VALID,1000.69,VALID,0,VALID,94.47,VALID,0,VALID,22.3941,VALID,33,VALID,1.05273,
2012-06-13, 02:27:04,VALID,1000.68,VALID,0,VALID,94.2182,VALID,0,VALID,22.4136,VALID,33,VALID,0.983594,
2012-06-13, 02:28:04,VALID,1000.68,VALID,0,VALID,94.0656,VALID,0,VALID,22.4331,VALID,33,VALID,0.980078,
2012-06-13, 02:29:04,VALID,1000.68,VALID,0,VALID,93.9893,VALID,0,VALID,22.4136,VALID,33,VALID,0.948047,
2012-06-13, 02:30:04,VALID,1000.66,VALID,0,VALID,93.9893,VALID,0,VALID,22.3941,VALID,33,VALID,0.693359,
2012-06-13, 02:31:04,VALID,1000.67,VALID,0,VALID,94.0351,VALID,0,VALID,22.3746,VALID,33,VALID,0.887891,
2012-06-13, 02:32:04,VALID,1000.65,VALID,0,VALID,94.1266,VALID,0,VALID,22.3746,VALID,33,VALID,0.892969,
2012-06-13, 02:33:04,VALID,1000.65,VALID,0,VALID,94.1266,VALID,0,VALID,22.3551,VALID,33,VALID,0.601563,
2012-06-13, 02:34:04,VALID,1000.63,VALID,0,VALID,94.1724,VALID,0,VALID,22.3356,VALID,33,VALID,0.55625,
2012-06-13, 02:35:04,VALID,1000.64,VALID,0,VALID,94.1953,VALID,0,VALID,22.3144,VALID,33,VALID,0.412891,
2012-06-13, 02:36:04,VALID,1000.65,VALID,0,VALID,94.2334,VALID,0,VALID,22.3144,VALID,33,VALID,0.226953,
2012-06-13, 02:37:04,VALID,1000.62,VALID,0,VALID,94.264,VALID,0,VALID,22.3161,VALID,33,VALID,0.315234,
2012-06-13, 02:38:04,VALID,1000.62,VALID,0,VALID,94.3326,VALID,0,VALID,22.3161,VALID,33,VALID,0.0957031,
2012-06-13, 02:39:04,VALID,1000.63,VALID,0,VALID,94.3403,VALID,0,VALID,22.2949,VALID,33,VALID,0,
2012-06-13, 02:40:04,VALID,1000.61,VALID,0,VALID,94.3479,VALID,0,VALID,22.2966,VALID,33,VALID,0,
2012-06-13, 02:41:04,VALID,1000.6,VALID,0,VALID,94.325,VALID,0,VALID,22.2771,VALID,33,VALID,0,
2012-06-13, 02:42:04,VALID,1000.56,VALID,0,VALID,94.3555,VALID,0,VALID,22.2771,VALID,33,VALID,0,
2012-06-13, 02:43:04,VALID,1000.61,VALID,0,VALID,94.386,VALID,0,VALID,22.2771,VALID,33,VALID,0,
2012-06-13, 02:44:04,VALID,1000.58,VALID,0,VALID,94.4394,VALID,0,VALID,22.2576,VALID,33,VALID,0,
2012-06-13, 02:45:04,VALID,1000.56,VALID,0,VALID,94.5005,VALID,0,VALID,22.2576,VALID,33,VALID,0,
2012-06-13, 02:46:04,VALID,1000.55,VALID,0,VALID,94.5615,VALID,0,VALID,22.2559,VALID,33,VALID,0.296094,
2012-06-13, 02:47:04,VALID,1000.56,VALID,0,VALID,94.6226,VALID,0,VALID,22.2559,VALID,33,VALID,0.259375,
2012-06-13, 02:48:04,VALID,1000.53,VALID,0,VALID,94.6073,VALID,0,VALID,22.2966,VALID,33,VALID,0.357812,
2012-06-13, 02:49:04,VALID,1000.52,VALID,0,VALID,94.4852,VALID,0,VALID,22.2771,VALID,33,VALID,0.383594,
2012-06-13, 02:50:04,VALID,1000.5,VALID,0,VALID,94.4013,VALID,0,VALID,22.2754,VALID,33,VALID,0.402344,
2012-06-13, 02:51:04,VALID,1000.51,VALID,0,VALID,94.2411,VALID,0,VALID,22.2966,VALID,33,VALID,0.281641,
2012-06-13, 02:52:04,VALID,1000.5,VALID,0,VALID,94.1495,VALID,0.104696,VALID,22.2966,VALID,33,VALID,0.366797,
2012-06-13, 02:53:04,VALID,1000.48,VALID,0,VALID,93.9511,VALID,0,VALID,22.2754,VALID,33,VALID,0.240234,
2012-06-13, 02:54:04,VALID,1000.47,VALID,0,VALID,93.7757,VALID,0.104696,VALID,22.2966,VALID,33,VALID,0.152734,
2012-06-13, 02:55:04,VALID,1000.5,VALID,0,VALID,93.7146,VALID,0,VALID,22.3161,VALID,33,VALID,0.384766,
2012-06-13, 02:56:04,VALID,1000.46,VALID,0,VALID,93.7909,VALID,0,VALID,22.3339,VALID,85,VALID,0.728516,
2012-06-13, 02:57:04,VALID,1000.47,VALID,0,VALID,93.7757,VALID,0,VALID,22.4119,VALID,129,VALID,0.906641,
2012-06-13, 02:58:04,VALID,1000.48,VALID,0,VALID,93.501,VALID,0,VALID,22.5111,VALID,130,VALID,1.08398,
2012-06-13, 02:59:04,VALID,1000.46,VALID,0,VALID,93.1653,VALID,0,VALID,22.5892,VALID,130,VALID,0.945703,
2012-06-13, 03:00:04,VALID,1000.48,VALID,0,VALID,92.822,VALID,0,VALID,22.6282,VALID,127,VALID,0.886719,
2012-06-13, 03:01:04,VALID,1000.47,VALID,0,VALID,92.532,VALID,0,VALID,22.6672,VALID,127,VALID,0.679297,
2012-06-13, 03:02:04,VALID,1000.48,VALID,0,VALID,92.3337,VALID,0,VALID,22.685,VALID,127,VALID,0.736328,
2012-06-13, 03:03:04,VALID,1000.5,VALID,0,VALID,92.1734,VALID,0.104696,VALID,22.724,VALID,127,VALID,0.508203,
2012-06-13, 03:04:04,VALID,1000.47,VALID,0,VALID,92.0666,VALID,0,VALID,22.7664,VALID,127,VALID,0.410547,
2012-06-13, 03:05:04,VALID,1000.51,VALID,0,VALID,91.7691,VALID,0,VALID,22.7664,VALID,127,VALID,0.118359,
2012-06-13, 03:06:04,VALID,1000.5,VALID,0,VALID,91.6317,VALID,0,VALID,22.7647,VALID,127,VALID,0,
2012-06-13, 03:07:04,VALID,1000.53,VALID,0,VALID,91.9064,VALID,0,VALID,22.786,VALID,127,VALID,0,
2012-06-13, 03:08:04,VALID,1000.49,VALID,0,VALID,92.1734,VALID,0,VALID,22.786,VALID,127,VALID,0.00351562,
2012-06-13, 03:09:04,VALID,1000.52,VALID,0,VALID,92.2345,VALID,0,VALID,22.786,VALID,127,VALID,0.185547,
2012-06-13, 03:10:04,VALID,1000.5,VALID,0,VALID,92.3489,VALID,0,VALID,22.7452,VALID,127,VALID,0.276172,
2012-06-13, 03:11:04,VALID,1000.48,VALID,0,VALID,92.41,VALID,0,VALID,22.7664,VALID,127,VALID,0.314844,
2012-06-13, 03:12:04,VALID,1000.48,VALID,0,VALID,92.5473,VALID,0,VALID,22.7452,VALID,127,VALID,0.366797,
2012-06-13, 03:13:04,VALID,1000.47,VALID,0,VALID,92.5931,VALID,0,VALID,22.7469,VALID,127,VALID,0.481641,
2012-06-13, 03:14:04,VALID,1000.48,VALID,0,VALID,92.6465,VALID,0,VALID,22.6867,VALID,127,VALID,0.419141,
2012-06-13, 03:15:04,VALID,1000.48,VALID,0,VALID,92.6388,VALID,0,VALID,22.6494,VALID,127,VALID,0.316797,
2012-06-13, 03:16:04,VALID,1000.44,VALID,0,VALID,92.8448,VALID,0,VALID,22.6087,VALID,127,VALID,0.353516,
2012-06-13, 03:17:04,VALID,1000.46,VALID,0,VALID,92.9288,VALID,0,VALID,22.5714,VALID,127,VALID,0.263281,
2012-06-13, 03:18:04,VALID,1000.47,VALID,0,VALID,93.0127,VALID,0,VALID,22.5519,VALID,127,VALID,0.138672,
2012-06-13, 03:19:04,VALID,1000.46,VALID,0,VALID,93.2034,VALID,0,VALID,22.5111,VALID,127,VALID,0.332031,
2012-06-13, 03:20:04,VALID,1000.48,VALID,0,VALID,93.4171,VALID,0,VALID,22.4916,VALID,127,VALID,0.0800781,
2012-06-13, 03:21:04,VALID,1000.45,VALID,0,VALID,93.5163,VALID,0,VALID,22.4526,VALID,127,VALID,0.301953,
2012-06-13, 03:22:04,VALID,1000.49,VALID,0,VALID,93.4857,VALID,0,VALID,22.4136,VALID,28,VALID,0.685156,
2012-06-13, 03:23:04,VALID,1000.5,VALID,0,VALID,93.6231,VALID,0,VALID,22.3746,VALID,13,VALID,0.799609,
2012-06-13, 03:24:04,VALID,1000.5,VALID,0,VALID,93.646,VALID,0,VALID,22.3356,VALID,13,VALID,0.758594,
2012-06-13, 03:25:04,VALID,1000.5,VALID,0,VALID,93.7375,VALID,0,VALID,22.3161,VALID,13,VALID,0.373437,
2012-06-13, 03:26:04,VALID,1000.48,VALID,0,VALID,93.9435,VALID,0.104696,VALID,22.3161,VALID,13,VALID,0.558594,
2012-06-13, 03:27:04,VALID,1000.48,VALID,0,VALID,93.9435,VALID,0,VALID,22.2966,VALID,13,VALID,0.583203,
2012-06-13, 03:28:04,VALID,1000.48,VALID,0,VALID,93.7757,VALID,0,VALID,22.2771,VALID,13,VALID,0.538281,
2012-06-13, 03:29:04,VALID,1000.48,VALID,0,VALID,93.768,VALID,0,VALID,22.2949,VALID,13,VALID,0.528125,
2012-06-13, 03:30:04,VALID,1000.48,VALID,0,VALID,93.8214,VALID,0,VALID,22.3161,VALID,13,VALID,0.357031,
2012-06-13, 03:31:04,VALID,1000.46,VALID,0,VALID,93.7604,VALID,0,VALID,22.2754,VALID,13,VALID,0.406641,
2012-06-13, 03:32:04,VALID,1000.46,VALID,0,VALID,93.768,VALID,0,VALID,22.3161,VALID,13,VALID,0.416016,
2012-06-13, 03:33:04,VALID,1000.46,VALID,0,VALID,93.768,VALID,0,VALID,22.2966,VALID,13,VALID,0.394531,
2012-06-13, 03:34:04,VALID,1000.45,VALID,0,VALID,93.7604,VALID,0,VALID,22.3161,VALID,13,VALID,0.255859,
2012-06-13, 03:35:04,VALID,1000.45,VALID,0,VALID,93.7604,VALID,0,VALID,22.3161,VALID,13,VALID,0.322656,
2012-06-13, 03:36:04,VALID,1000.43,VALID,0,VALID,93.7909,VALID,0,VALID,22.3161,VALID,13,VALID,0.317578,
2012-06-13, 03:37:04,VALID,1000.45,VALID,0,VALID,93.7757,VALID,0,VALID,22.2966,VALID,13,VALID,0.324219,
2012-06-13, 03:38:04,VALID,1000.47,VALID,0,VALID,93.7299,VALID,0,VALID,22.2771,VALID,13,VALID,0.0121094,
2012-06-13, 03:39:04,VALID,1000.47,VALID,0,VALID,93.6994,VALID,0,VALID,22.2966,VALID,13,VALID,0,
2012-06-13, 03:40:04,VALID,1000.49,VALID,0,VALID,93.6612,VALID,0,VALID,22.2771,VALID,13,VALID,0,
2012-06-13, 03:41:04,VALID,1000.5,VALID,0,VALID,93.6154,VALID,0,VALID,22.2771,VALID,13,VALID,0,
2012-06-13, 03:42:04,VALID,1000.51,VALID,0,VALID,93.6765,VALID,0,VALID,22.2559,VALID,13,VALID,0,
2012-06-13, 03:43:04,VALID,1000.52,VALID,0,VALID,93.6994,VALID,0,VALID,22.2559,VALID,13,VALID,0,
2012-06-13, 03:44:04,VALID,1000.54,VALID,0,VALID,93.7299,VALID,0,VALID,22.2576,VALID,13,VALID,0,
2012-06-13, 03:45:04,VALID,1000.53,VALID,0,VALID,93.6917,VALID,0,VALID,22.2381,VALID,13,VALID,0,
2012-06-13, 03:46:04,VALID,1000.51,VALID,0,VALID,93.6612,VALID,0,VALID,22.2186,VALID,13,VALID,0,
2012-06-13, 03:47:04,VALID,1000.57,VALID,0,VALID,93.6841,VALID,0,VALID,22.199,VALID,13,VALID,0,
2012-06-13, 03:48:04,VALID,1000.54,VALID,0,VALID,93.6536,VALID,0,VALID,22.2186,VALID,13,VALID,0,
2012-06-13, 03:49:04,VALID,1000.57,VALID,0,VALID,93.6536,VALID,0,VALID,22.199,VALID,13,VALID,0,